Location: Sweetwater (historical)
(38.4624°N, 119.1749°W)
Time: 13:38:11
(UTC+00:00)

CZ-2C R/B - Pass Details

Date: 13 August 2020
Orbit: 501 x 568 km, 97.7° (Epoch: 20 September)

Event Time Altitude Azimuth Distance (km) Brightness Sun altitude
Rises 12:00:10 0° 0° (N) 2,673 6.8 -13.2°
Reaches altitude 10° 12:02:29 10° 349° (N) 1,767 5.7 -12.8°
Maximum altitude 12:05:46 29° 289° (WNW) 978 3.7 -12.2°
Enters shadow 12:07:41 18° 243° (WSW) 1,289 4.0 -11.9°
